Home   Weather   Sanikiluaq   Past weeks

Flag for Canada Past Weather in Sanikiluaq, Nunavut, Canada — Yesterday and Last 2 Weeks

Now
10 °F

Clear.


Feels Like: 1 °F
Forecast: 27 / 33 °F
Wind: 6 mph from Southeast

Location: Kuujjuarapik

Current Time: Dec 2, 2016 at 11:38:13 pm

Latest Report: Dec 2, 2016 at 11:00 pm


Visibility: 9 mi

Pressure: 30.08 "Hg

Humidity: 79%

Dew Point: 5 °F

Location of SanikiluaqLocation

Past Weather in Sanikiluaq — Graph

°F

Sanikiluaq Temperature Yesterday

Maximum temperature yesterday: 34 °F (at 2:00 pm)
Minimum temperature yesterday: 23 °F (at 12:00 am)
Average temperature yesterday: 27 °F

High & Low Weather Summary for the Past Weeks

 TemperatureHumidityPressure
High34 °F (Nov 17, 10:02 pm)100% (Nov 18, 9:00 pm)30.44 "Hg (Nov 18, 9:00 pm)
Low9 °F (Nov 23, 3:00 am)51% (Nov 29, 2:00 pm)29.72 "Hg (Nov 19, 3:00 pm)
Average23 °F83%30.10 "Hg
* Reported Nov 17 10:02 pm — Dec 2 10:00 pm, Sanikiluaq, Weather by CustomWeather, © 2016

Note: Actual official high and low records may vary slightly from our data, if they occured in-between our weather recording intervals... More about our weather records

Advertising

Sanikiluaq Weather History for the Previous 24 Hours

Scroll right to see more
 ConditionsComfort  
Time TempWeatherWind HumidityBarometerVisibility
10:00 pm
Fri, Dec 2
10 °FClear.5 mph85%30.08 "Hg9 mi
9:00 pm10 °FClear.6 mph79%30.07 "Hg9 mi
8:00 pm12 °FClear.3 mph85%30.07 "Hg9 mi
7:00 pm19 °FClear.8 mph68%30.05 "Hg9 mi
6:00 pm19 °FClear.7 mph68%30.03 "Hg9 mi
5:00 pm19 °FClear.7 mph73%30.03 "Hg9 mi
4:00 pm18 °FClear.8 mph73%30.01 "Hg9 mi
3:00 pm19 °FSunny.3 mph73%29.99 "Hg9 mi
2:00 pm21 °FSunny.6 mph63%29.97 "Hg9 mi
1:00 pm19 °FSunny.5 mph68%29.95 "Hg9 mi
12:00 pm19 °FSunny.No wind68%29.95 "Hg9 mi
11:00 am16 °FSunny.5 mph73%29.95 "Hg9 mi
10:00 am14 °FSunny.5 mph73%29.95 "Hg9 mi
9:00 am12 °FSunny.6 mph79%29.93 "Hg9 mi
8:00 am14 °FClear.5 mph79%29.93 "Hg9 mi
7:00 am14 °FClear.2 mph79%29.90 "Hg9 mi
6:00 am16 °FClear.No wind79%29.88 "Hg9 mi
5:00 am14 °FClear.3 mph85%29.87 "Hg9 mi
4:00 am18 °FClear.10 mph79%29.84 "Hg9 mi
3:00 am18 °FClear.13 mph79%29.83 "Hg9 mi
2:00 am19 °FClear.8 mph79%29.82 "Hg9 mi
1:00 am21 °FClear.15 mph74%29.80 "Hg9 mi
12:00 am21 °FPassing clouds.8 mph80%29.79 "Hg9 mi
11:00 pm
Thu, Dec 1
23 °FClear.6 mph80%29.78 "Hg9 mi
Weather by CustomWeather, © 2016

See weather overviewHow to use our weather pages